Current weather by "City, St" or "zip code"  
 

Current Conditions: Dayton / Wright-Patterson Air Force Base, OH

Light Rain


45.0 F

Last Updated on Oct 29 2020, 8:56 pm EDT
Humidity: 84%
Wind Speed: N 11.5 mph
Barometer 29.77 in
Dewpoint: 40.8 F
Visibility: 7.00 mi
Precip: 00.02 in
Heat Index: NA
Wind Chill: 39 F
Current conditions at:

Dayton / Wright-Patterson Air Force Base, OH (KFFO)

Lat: 39.83333 Lon: 84.05

Local Radar Image active severe weather and emergency alerts image image weather storm and storm spotter reports image weather observation monitoring service image
Local
Radar
Active
Alerts
Storm Reports Obs
Monitoring

Sign-up For Email & Text Message Weather Alert Notification Services



Advertise Here

Observation History for Dayton / Wright-Patterson Air Force Base, OH


Time Wind
(mph)
Vis
(mi)
Weather Precip (in) Temperature (F) Relative
Humidity
Wind
Chill
(F)
Heat
Index
(F)
Pressure
Air Dwpt altimeter
(in)
sea level
(mb)
Rmks
8:56 pm EDT N 11.5 7.00 Light Rain 00.02 45.0 40.8 84% 39 NA 29.77 1008.7
7:56 pm EDT N 10.4 6.00 Light Rain 00.02 45.0 40.8 85% 40 NA 29.77 1008.7
6:56 pm EDT N 9.2 G 20.7 7.00 Light Rain Trace 46.0 41.2 84% 41 NA 29.75 1007.9
5:56 pm EDT N 11.5 6.00 Light Rain 00.01 47.0 43.3 87% 42 NA 29.71 1006.6
4:56 pm EDT N 9.2 6.00 Light Drizzle 00.04 47.0 43.5 89% 43 NA 29.70 1006.2
3:56 pm EDT N 13.8 2.50 Rain Fog/Mist 00.03 47.0 44.1 88% 41 NA 29.67 1005.1
2:56 pm EDT NE 10.4 6.00 Light Rain Fog/Mist Trace 48.0 44.2 88% 43 NA 29.63 1003.8
1:56 pm EDT N 10.4 G 18.4 5.00 Light Rain Fog/Mist 00.02 47.0 43.3 87% 42 NA 29.65 1004.5
12:56 pm EDT N 9.2 7.00 Light Rain 00.02 46.0 42.3 86% 41 NA 29.69 1005.9
11:56 am EDT N 12.7 4.00 Light Rain Fog/Mist -- 46.0 42.1 88% 40 NA 29.67 1005.2
10:56 am EDT NE 13.8 5.00 Light Rain Fog/Mist -- 46.0 42.1 88% 40 NA 29.67 1005.2
9:56 am EDT NE 15.0 5.00 Light Rain Fog/Mist 00.15 46.0 43.3 89% 40 NA 29.69 1005.9
8:56 am EDT NE 13.8 3.00 Rain Fog/Mist -- 47.0 44.6 90% 41 NA 29.69 1005.8
7:56 am EDT NE 13.8 10.00 Light Rain 00.12 49.0 45.7 90% 44 NA 29.69 1005.8
6:56 am EDT NE 12.7 7.00 Rain Fog/Mist 00.16 50.0 47.7 92% 45 NA 29.72 1006.8
5:56 am EDT NE 12.7 8.00 Rain -- 50.0 47.8 93% 45 NA 29.72 1006.8
4:56 am EDT NE 8.1 8.00 Light Rain 00.05 50.0 48.7 94% 47 NA 29.76 1008.1
2:56 am EDT NE 3.5 6.00 Light Rain Fog/Mist 00.08 50.0 48.6 94% NA NA 29.82 1010.2
1:56 am EDT N 0.0 6.00 Light Rain Fog/Mist 00.11 50.0 48.6 94% NA NA 29.85 1011.3
12:56 am EDT N 5.8 5.00 Light Rain Fog/Mist 00.08 50.0 48.2 92% 48 NA 29.88 1012.3
11:56 pm EDT SE 3.5 8.00 Light Rain -- 51.0 47.5 89% NA NA 29.92 1013.6
10:56 pm EDT N 0.0 10.00 Light Rain Trace 50.0 46.8 88% NA NA 29.94 1014.3
9:56 pm EDT N 0.0 10.00 Overcast -- 51.0 46.2 85% NA NA 29.97 1015.4

Regional Weather Observation


Dayton / Wright-Patterson Air Force Base, OH (KFFO)

Light Rain
45.0 F

Versailles Darke County Airport, OH (KVES)

Overcast
43.0 F

Dayton, Dayton-Wright Brothers Airport, OH (KMGY)

Light Rain
45.0 F

Hook Field Municipal Airport, OH (KMWO)

Light Rain
46.0 F

Springfield, Springfield-Beckley Municipal Airport, OH (KSGH)

Light Rain
44.0 F

Bellefontaine Regional Airport, OH (KEDJ)

Overcast
43.0 F